Regional Weather Roundup
Issued by NWS

Home | Current Version | Previous Version | Text Only | Print | Product List | Glossary Off
Versions: 1 2 3 4 5 6 7 8 9 10 11 12 13 14 15 16 17 18 19 20 21 22 23 24 25 26 27 28 29 30 31 32 33 34 35 36 37 38 39 40 41 42 43 44 45 46 47 48 49 50

318
ASUS45 KBOI 041910
RWRID

IDAHO REGIONAL WEATHER ROUNDUP
NATIONAL WEATHER SERVICE BOISE ID
100 PM MDT WED MAY 04 2016

NOTE: "FAIR" INDICATES FEW OR NO CLOUDS BELOW 12000 FEET
WITH NO SIGNIFICANT WEATHER AND/OR OBSTRUCTIONS TO VISIBILITY

IDZ012-014-042000-
SOUTHWEST IDAHO


CITY           SKY/WX    TMP DP  RH WIND       PRES   REMARKS
BOISE          PTSUNNY   82  33  17 SE12G28   29.93F
CALDWELL       PTSUNNY   78  44  29 CALM      29.92F
MOUNTAIN HOME  PTSUNNY   80  38  22 E16       29.94F
$$

IDZ016-017-042000-
SOUTHCENTRAL IDAHO


CITY           SKY/WX    TMP DP  RH WIND       PRES   REMARKS
BURLEY         SUNNY     75  36  24 E6        30.04F
JEROME         SUNNY     76  37  24 SE5       30.04F
TWIN FALLS     MOSUNNY   77  34  21 S17G25    30.03F
$$

IDZ019>023-042000-
SOUTHEAST IDAHO


CITY           SKY/WX    TMP DP  RH WIND       PRES   REMARKS
IDAHO FALLS    MOSUNNY   72  32  23 CALM      30.12F
POCATELLO      MOSUNNY   76  38  25 VRB3      30.09F
REXBURG        SUNNY     72  32  23 VRB7      30.13F
$$

IDZ006-010-011-018-031-032-042000-
CENTRAL IDAHO MOUNTAINS


CITY           SKY/WX    TMP DP  RH WIND       PRES   REMARKS
MCCALL         MOSUNNY   70  32  24 SE14      30.02F
HAILEY         MOSUNNY   66  36  32 SE16      30.13F
STANLEY          N/A     69  27  20 S8G17     30.14F
SALMON         PTSUNNY   70  37  30 NW5       30.03F
CHALLIS        MOSUNNY   68  29  23 CALM      30.08F
$$

IDZ002-004-006-007-026-042000-
NORTHERN IDAHO


CITY           SKY/WX    TMP DP  RH WIND       PRES   REMARKS
LEWISTON       SUNNY     74  46  36 E3        29.94F
LOWELL           N/A     73  45  36 CALM      29.92F
COEUR D`ALENE  MOSUNNY   70  48  46 S5        29.96S
MULLAN PASS    MOSUNNY   61  32  33 VRB3      30.10F
$$




USA.gov is the U.S. government's official web portal to all federal, state and local government web resources and services.